Location: Doux
(49.5045°N, 4.4321°E)
Time: 12:49:00
(UTC+00:00)

Aureole 3 - Pass Details

Date: 23 May 2024
Orbit: 378 x 1127 km, 82.5° (Epoch: 16 June)

Event Time Altitude Azimuth Distance (km) Brightness Sun altitude
Exits shadow 01:09:41 34° 266° (W) 648 3.4 -17.0°
Maximum altitude 01:10:03 36° 285° (WNW) 627 3.5 -17.0°
Drops below altitude 10° 01:12:52 10° 354° (N) 1,424 6.4 -16.8°
Sets 01:15:00 0° 4° (N) 2,326 7.9 -16.7°
